When you browse on this site, cookies collect data to enhance your experience and personalize the content and advertising you see.
Visit our Privacy Policy to learn more. By continuing to use the site, you agree to this use of cookies and data.
  • In Norway
  • List of Countries
  • For 7 days
  • Water Temperature
  • Satellite Maps
  • Weather Map
  • Weather Widgets
  • user-avatar
    Login

    Hourly Weather Wien

    Today, 20 June, Thursday

    Time Temperature Precipitation Wind Pressure Humidity
    00:00 +21°C° 0 mm 1 mps 740 mmHg 79%
    01:00 +20°C° 0 mm 1 mps 740 mmHg 80%
    02:00 +20°C° 0 mm 1 mps 740 mmHg 81%
    03:00 +20°C° 0 mm 1 mps 740 mmHg 82%
    04:00 +19°C° 0 mm 1 mps 740 mmHg 84%
    05:00 +18°C° 0 mm 0 mps 740 mmHg 81%
    06:00 +19°C° 0 mm 0 mps 740 mmHg 78%
    07:00 +21°C° 0 mm 0 mps 741 mmHg 75%
    08:00 +24°C° 0 mm 1 mps 741 mmHg 69%
    09:00 +26°C° 0 mm 1 mps 741 mmHg 62%
    10:00 +28°C° 0 mm 1 mps 741 mmHg 56%
    11:00 +29°C° 0 mm 1 mps 740 mmHg 51%
    12:00 +30°C° 0 mm 1 mps 740 mmHg 47%
    13:00 +31°C° 0 mm 1 mps 740 mmHg 42%
    14:00 +31°C° 0 mm 1 mps 740 mmHg 42%
    15:00 +31°C° 0 mm 2 mps 740 mmHg 42%
    16:00 +31°C° 0 mm 2 mps 740 mmHg 42%
    17:00 +29°C° 1.3 mm 3 mps 740 mmHg 53%
    18:00 +26°C° 1.3 mm 4 mps 740 mmHg 64%
    19:00 +22°C° 1.3 mm 5 mps 740 mmHg 75%
    20:00 +22°C° 2.8 mm 4 mps 741 mmHg 75%
    21:00 +21°C° 2.8 mm 3 mps 741 mmHg 75%
    22:00 +20°C° 2.8 mm 3 mps 741 mmHg 75%
    23:00 +20°C° 0 mm 3 mps 742 mmHg 76%

    Tomorrow, 21 June, Friday

    Time Temperature Precipitation Wind Pressure Humidity
    00:00 +20°C° 0 mm 3 mps 742 mmHg 77%
    01:00 +19°C° 0 mm 3 mps 742 mmHg 78%
    02:00 +19°C° 0 mm 3 mps 742 mmHg 79%
    03:00 +19°C° 0 mm 3 mps 742 mmHg 80%
    04:00 +19°C° 0 mm 4 mps 742 mmHg 81%
    05:00 +20°C° 0 mm 4 mps 742 mmHg 78%
    06:00 +21°C° 0 mm 4 mps 743 mmHg 75%
    07:00 +21°C° 0 mm 4 mps 743 mmHg 72%
    08:00 +22°C° 0 mm 4 mps 743 mmHg 68%
    09:00 +25°C° 0 mm 4 mps 743 mmHg 63%
    10:00 +26°C° 0 mm 4 mps 743 mmHg 58%
    11:00 +27°C° 0 mm 4 mps 743 mmHg 54%
    12:00 +28°C° 0 mm 4 mps 743 mmHg 51%
    13:00 +29°C° 0 mm 4 mps 743 mmHg 48%
    14:00 +29°C° 0 mm 3 mps 743 mmHg 48%
    15:00 +29°C° 0 mm 3 mps 743 mmHg 49%
    16:00 +29°C° 0 mm 3 mps 742 mmHg 50%
    17:00 +28°C° 0.1 mm 2 mps 742 mmHg 55%
    18:00 +27°C° 0.1 mm 2 mps 742 mmHg 61%
    19:00 +26°C° 0.1 mm 2 mps 742 mmHg 67%
    20:00 +25°C° 0.2 mm 2 mps 743 mmHg 71%
    21:00 +24°C° 0.2 mm 2 mps 743 mmHg 75%
    22:00 +23°C° 0.2 mm 2 mps 744 mmHg 78%
    23:00 +21°C° 0.3 mm 2 mps 744 mmHg 80%

    Day after tomorrow, 22 June, Saturday

    Time Temperature Precipitation Wind Pressure Humidity
    00:00 +20°C° 0.3 mm 2 mps 743 mmHg 82%
    01:00 +20°C° 0.3 mm 2 mps 743 mmHg 84%
    02:00 +20°C° 0 mm 2 mps 743 mmHg 84%
    03:00 +19°C° 0 mm 2 mps 743 mmHg 84%
    04:00 +19°C° 0 mm 2 mps 743 mmHg 85%
    05:00 +20°C° 0 mm 2 mps 744 mmHg 84%
    06:00 +20°C° 0 mm 2 mps 744 mmHg 82%
    07:00 +21°C° 0 mm 3 mps 744 mmHg 81%
    08:00 +22°C° 0 mm 3 mps 744 mmHg 77%
    09:00 +24°C° 0 mm 3 mps 744 mmHg 74%
    10:00 +25°C° 0 mm 3 mps 743 mmHg 70%
    11:00 +26°C° 0.1 mm 3 mps 743 mmHg 67%
    12:00 +27°C° 0.1 mm 4 mps 743 mmHg 64%
    13:00 +28°C° 0.1 mm 4 mps 743 mmHg 61%
    14:00 +27°C° 1.1 mm 4 mps 742 mmHg 64%
    15:00 +27°C° 1.1 mm 4 mps 742 mmHg 67%
    16:00 +26°C° 1.1 mm 4 mps 742 mmHg 69%
    17:00 +26°C° 1.1 mm 3 mps 742 mmHg 72%
    18:00 +25°C° 1.1 mm 3 mps 742 mmHg 75%
    19:00 +24°C° 1.1 mm 3 mps 742 mmHg 78%
    20:00 +22°C° 1.5 mm 3 mps 742 mmHg 80%
    21:00 +23°C° 1.5 mm 2 mps 742 mmHg 83%
    22:00 +21°C° 1.5 mm 2 mps 742 mmHg 86%
    23:00 +20°C° 0.7 mm 2 mps 742 mmHg 87%

    23 June, Sunday

    Time Temperature Precipitation Wind Pressure Humidity
    00:00 +20°C° 0.7 mm 2 mps 742 mmHg 88%
    01:00 +19°C° 0.7 mm 2 mps 742 mmHg 89%
    02:00 +19°C° 1.2 mm 2 mps 742 mmHg 90%
    03:00 +19°C° 1.2 mm 2 mps 742 mmHg 91%
    04:00 +19°C° 1.2 mm 2 mps 742 mmHg 92%
    05:00 +19°C° 0.8 mm 3 mps 743 mmHg 91%
    06:00 +19°C° 0.8 mm 3 mps 743 mmHg 91%
    07:00 +19°C° 0.8 mm 3 mps 743 mmHg 91%
    08:00 +19°C° 0.5 mm 3 mps 743 mmHg 90%
    09:00 +19°C° 0.5 mm 3 mps 744 mmHg 90%
    10:00 +19°C° 0.5 mm 3 mps 744 mmHg 89%
    11:00 +21°C° 0.1 mm 4 mps 744 mmHg 84%
    12:00 +22°C° 0.1 mm 4 mps 744 mmHg 79%
    13:00 +23°C° 0.1 mm 5 mps 744 mmHg 74%
    14:00 +23°C° 0.1 mm 5 mps 744 mmHg 74%
    15:00 +23°C° 0.1 mm 5 mps 744 mmHg 74%
    16:00 +23°C° 0.1 mm 5 mps 744 mmHg 73%
    17:00 +22°C° 0.1 mm 4 mps 745 mmHg 74%
    18:00 +22°C° 0.1 mm 4 mps 745 mmHg 75%
    19:00 +21°C° 0.1 mm 4 mps 745 mmHg 76%
    20:00 +20°C° 0 mm 4 mps 746 mmHg 76%
    21:00 +19°C° 0 mm 4 mps 746 mmHg 77%
    22:00 +18°C° 0 mm 4 mps 747 mmHg 77%
    23:00 +18°C° 0 mm 4 mps 747 mmHg 78%

    24 June, Monday

    Time Temperature Precipitation Wind Pressure Humidity
    00:00 +18°C° 0 mm 4 mps 747 mmHg 79%
    01:00 +18°C° 0 mm 3 mps 747 mmHg 81%
    02:00 +17°C° 0 mm 4 mps 747 mmHg 82%
    03:00 +17°C° 0 mm 4 mps 747 mmHg 83%
    04:00 +17°C° 0 mm 4 mps 747 mmHg 84%
    05:00 +18°C° 0 mm 4 mps 747 mmHg 82%
    06:00 +19°C° 0 mm 4 mps 747 mmHg 79%
    07:00 +20°C° 0 mm 4 mps 748 mmHg 77%
    08:00 +21°C° 0 mm 4 mps 748 mmHg 74%
    09:00 +22°C° 0 mm 4 mps 748 mmHg 70%
    10:00 +23°C° 0 mm 4 mps 748 mmHg 67%
    11:00 +25°C° 0 mm 4 mps 748 mmHg 65%
    12:00 +26°C° 0 mm 4 mps 748 mmHg 63%
    13:00 +27°C° 0 mm 4 mps 748 mmHg 61%
    14:00 +27°C° 0 mm 4 mps 748 mmHg 61%
    15:00 +27°C° 0 mm 5 mps 747 mmHg 60%
    16:00 +27°C° 0 mm 5 mps 747 mmHg 60%
    17:00 +27°C° 0 mm 4 mps 748 mmHg 64%
    18:00 +26°C° 0 mm 4 mps 748 mmHg 67%
    19:00 +25°C° 0 mm 3 mps 748 mmHg 71%
    20:00 +24°C° 0 mm 3 mps 748 mmHg 73%
    21:00 +22°C° 0 mm 3 mps 749 mmHg 75%
    22:00 +21°C° 0 mm 3 mps 749 mmHg 77%
    23:00 +21°C° 0 mm 3 mps 749 mmHg 78%

    25 June, Tuesday

    Time Temperature Precipitation Wind Pressure Humidity
    00:00 +20°C° 0 mm 3 mps 749 mmHg 80%
    01:00 +20°C° 0 mm 2 mps 749 mmHg 82%
    02:00 +19°C° 0 mm 2 mps 749 mmHg 84%
    03:00 +19°C° 0 mm 2 mps 749 mmHg 85%
    04:00 +18°C° 0 mm 2 mps 749 mmHg 87%
    05:00 +19°C° 0 mm 3 mps 749 mmHg 83%
    06:00 +20°C° 0 mm 3 mps 749 mmHg 80%
    07:00 +21°C° 0 mm 3 mps 750 mmHg 76%
    08:00 +24°C° 0 mm 3 mps 750 mmHg 70%
    09:00 +25°C° 0 mm 4 mps 750 mmHg 64%
    10:00 +27°C° 0 mm 4 mps 750 mmHg 58%
    11:00 +28°C° 0 mm 4 mps 750 mmHg 55%
    12:00 +29°C° 0 mm 4 mps 750 mmHg 52%
    13:00 +29°C° 0 mm 4 mps 750 mmHg 50%
    14:00 +29°C° 0 mm 4 mps 749 mmHg 50%
    15:00 +29°C° 0 mm 4 mps 749 mmHg 50%
    16:00 +29°C° 0 mm 4 mps 749 mmHg 51%
    17:00 +28°C° 0 mm 4 mps 749 mmHg 55%
    18:00 +27°C° 0 mm 3 mps 749 mmHg 60%
    19:00 +26°C° 0 mm 3 mps 749 mmHg 64%
    20:00 +25°C° 0 mm 3 mps 750 mmHg 66%
    21:00 +23°C° 0 mm 2 mps 750 mmHg 67%
    22:00 +21°C° 0 mm 2 mps 751 mmHg 68%
    23:00 +21°C° 0 mm 2 mps 751 mmHg 71%
    Show more